INSAT-3DR

Last updated on Tue Oct 14 2025 00:02:22 GMT+0000 (Coordinated Universal Time)

1 41752U 16054A 25286.57834916 -.00000090 00000+0 00000+0 0 9999 2 41752 0.1238 86.4843 0013284 177.9550 40.1458 1.00270979 33340
UTC large
Height (km)
Speed (km/s)
/
Latitude / Longitude
Inclination (degrees)
Orbital Period (minutes)
Azimuth
Elevation
Range (km)
Doppler Factor

Next 0 passes for location: London (51.5072 / 0.1276)

Sorry there are no passes over London.